Weather History for Wilmington, OH

Change the Weather History Date:

Sunday, November 3, 2013

  Actual Average (KDAY) Record (KDAY)
Temperature  
Mean Temperature 46 °F 48 °F  
Max Temperature 54 °F 57 °F 77 °F (1987)
Min Temperature 39 °F 39 °F 13 °F (1951)
Degree Days  
Heating Degree Days 20 17  
Month to date heating degree days 50  
Since 1 July heating degree days 497  
Cooling Degree Days 0 0  
Month to date cooling degree days 0  
Year to date cooling degree days 891  
Moisture  
Dew Point 38 °F    
Average Humidity 80    
Maximum Humidity 93    
Minimum Humidity 49    
Precipitation  
Precipitation 0.00 in 0.11 in 0.80 in (1985)
Month to date precipitation 0.33  
Year to date precipitation 34.87  
Snow  
Snow 0.00 in 0.00 in 0.60 in (1966)
Month to date snowfall 0.0  
Since 1 July snowfall 0.4  
Since 1 September snowfall 0.4  
Snow Depth -    
Sea Level Pressure  
Sea Level Pressure 30.26 in    
Wind  
Wind Speed 5 mph (North)    
Max Wind Speed 8 mph    
Max Gust Speed -    
Visibility 10 miles    
Events      
T = Trace of Precipitation, MM = Missing Value Source: NWS Daily Summary

Daily Weather History Graph

Daily Weather History Graph

Search for Another Location

Airport:

Trip Planner

Search our weather history database for the weather conditions in past years. The results will help you decide how hot, cold, wet, or windy it might be!

Date:

Astronomy

Nov. 03, 2013 Rise Set
Actual Time 7:05 AM EST 5:31 PM EST
Civil Twilight 6:37 AM EST 5:59 PM EST
Nautical Twilight 6:06 AM EST 6:31 PM EST
Astronomical Twilight 5:34 AM EST 7:02 PM EST
Moon 7:08 AM EST (11/3) 5:45 PM EST (11/3)
Length of Visible Light 11h 21m
Length of Day
10h 25m
New Moon, 0% of the Moon is Illuminated
Nov 3
New Moon
Nov 10
First Quarter
Nov 17
Full
Nov 25
Last Quarter
Dec 2
New

Hourly Weather History & Observations

Time (EST) Temp. Windchill Dew Point Humidity Pressure Visibility Wind Dir Wind Speed Gust Speed Precip Events Conditions
12:07 AM 44.6 °F 41.4 °F 39.2 °F 81% 30.07 in 10.0 mi WNW 5.8 mph - N/A   Overcast
12:54 AM 44.1 °F 40.8 °F 41.0 °F 89% 30.11 in 10.0 mi WNW 5.8 mph - N/A   Overcast
1:54 AM 43.0 °F 38.8 °F 39.9 °F 89% 30.12 in 10.0 mi WNW 6.9 mph - N/A   Overcast
1:16 AM 42.8 °F 38.6 °F 39.2 °F 87% 30.10 in 10.0 mi NW 6.9 mph - N/A   Overcast
1:54 AM 43.0 °F 39.5 °F 39.9 °F 89% 30.14 in 10.0 mi NW 5.8 mph - N/A   Overcast
2:54 AM 43.0 °F 39.5 °F 39.9 °F 89% 30.15 in 10.0 mi NW 5.8 mph - N/A   Overcast
3:28 AM 42.8 °F 40.1 °F 39.2 °F 87% 30.12 in 10.0 mi NNW 4.6 mph - N/A   Overcast
3:54 AM 43.0 °F 38.8 °F 39.9 °F 89% 30.18 in 10.0 mi NW 6.9 mph - N/A   Overcast
4:43 AM 42.8 °F 39.3 °F 39.2 °F 87% 30.16 in 10.0 mi NW 5.8 mph - N/A   Overcast
4:54 AM 42.1 °F 38.4 °F 39.0 °F 89% 30.21 in 10.0 mi NW 5.8 mph - N/A   Overcast
5:01 AM 42.8 °F 40.1 °F 39.2 °F 87% 30.17 in 10.0 mi NW 4.6 mph - N/A   Overcast
5:09 AM 42.8 °F 40.1 °F 39.2 °F 87% 30.17 in 10.0 mi NW 4.6 mph - N/A   Overcast
5:31 AM 42.8 °F 38.6 °F 39.2 °F 87% 30.18 in 10.0 mi NW 6.9 mph - N/A   Overcast
5:39 AM 42.8 °F 39.3 °F 39.2 °F 87% 30.19 in 10.0 mi NW 5.8 mph - N/A   Overcast
5:54 AM 42.1 °F 40.2 °F 39.0 °F 89% 30.23 in 10.0 mi NNW 3.5 mph - N/A   Overcast
6:54 AM 42.1 °F 40.2 °F 39.0 °F 89% 30.26 in 10.0 mi NNW 3.5 mph - N/A   Overcast
7:54 AM 41.0 °F 38.0 °F 39.0 °F 93% 30.30 in 10.0 mi North 4.6 mph - N/A   Overcast
8:24 AM 42.8 °F 40.1 °F 39.2 °F 87% 30.27 in 10.0 mi NNW 4.6 mph - N/A   Overcast
8:50 AM 42.8 °F 40.1 °F 39.2 °F 87% 30.27 in 10.0 mi NNE 4.6 mph - N/A   Mostly Cloudy
8:54 AM 43.0 °F 41.3 °F 39.9 °F 89% 30.32 in 10.0 mi NNE 3.5 mph - N/A   Mostly Cloudy
9:09 AM 44.6 °F 42.2 °F 39.2 °F 81% 30.28 in 10.0 mi North 4.6 mph - N/A   Mostly Cloudy
9:46 AM 44.6 °F 41.4 °F 39.2 °F 81% 30.29 in 10.0 mi NE 5.8 mph - N/A   Mostly Cloudy
9:54 AM 45.0 °F 40.6 °F 39.0 °F 80% 30.33 in 10.0 mi NE 8.1 mph - N/A   Mostly Cloudy
10:03 AM 44.6 °F 43.1 °F 39.2 °F 81% 30.29 in 10.0 mi Variable 3.5 mph - N/A   Mostly Cloudy
10:17 AM 46.4 °F 42.9 °F 39.2 °F 76% 30.29 in 10.0 mi ESE 6.9 mph - N/A   Mostly Cloudy
10:54 AM 48.0 °F - 37.9 °F 68% 30.35 in 10.0 mi Variable 3.5 mph - N/A   Mostly Cloudy
11:54 AM 48.9 °F - 37.9 °F 66% 30.35 in 10.0 mi NNE 5.8 mph - N/A   Overcast
12:54 PM 48.0 °F - 36.0 °F 63% 30.34 in 10.0 mi Calm Calm - N/A   Scattered Clouds
1:54 PM 52.0 °F - 33.1 °F 49% 30.32 in 10.0 mi South 3.5 mph - N/A   Partly Cloudy
2:54 PM 50.0 °F - 36.0 °F 59% 30.33 in 10.0 mi Variable 5.8 mph - N/A   Overcast
3:54 PM 50.0 °F - 35.1 °F 57% 30.33 in 10.0 mi ENE 3.5 mph - N/A   Overcast
4:54 PM 48.9 °F - 34.0 °F 56% 30.34 in 10.0 mi East 3.5 mph - N/A   Overcast
5:54 PM 45.0 °F 41.8 °F 36.0 °F 71% 30.35 in 10.0 mi East 5.8 mph - N/A   Clear
6:54 PM 42.1 °F 39.2 °F 35.1 °F 76% 30.38 in 10.0 mi East 4.6 mph - N/A   Clear
7:54 PM 41.0 °F 38.0 °F 35.1 °F 79% 30.39 in 10.0 mi East 4.6 mph - N/A   Clear
8:54 PM 41.0 °F 37.1 °F 34.0 °F 76% 30.38 in 10.0 mi East 5.8 mph - N/A   Clear
9:54 PM 39.0 °F 34.8 °F 33.1 °F 79% 30.40 in 10.0 mi East 5.8 mph - N/A   Clear
10:54 PM 39.0 °F - 33.1 °F 79% 30.43 in 10.0 mi Calm Calm - N/A   Clear